Location: Newark
(35.9031°N, 139.7175°E)
Time: 13:26:47
(UTC+00:00)

Transit 2A - Pass Details

Date: 04 June 2020
Orbit: 592 x 967 km, 66.7° (Epoch: 06 July)

Event Time Altitude Azimuth Distance (km) Brightness Sun altitude
Rises 13:31:26 0° 315° (NW) 3,625 10.4 -29.4°
Reaches altitude 10° 13:34:42 10° 299° (WNW) 2,698 9.3 -29.6°
Maximum altitude 13:38:59 19° 256° (WSW) 2,113 8.2 -29.8°
Enters shadow 13:39:26 19° 251° (WSW) 2,119 8.2 -29.9°
